TimeEST,TemperatureF,Dew PointF,Humidity,Sea Level PressureIn,VisibilityMPH,Wind Direction,Wind SpeedMPH,Gust SpeedMPH,PrecipitationIn,Events,Conditions,WindDirDegrees,DateUTC
12:53 AM,61.0,54.0,78,30.29,10.0,Calm,Calm,-,N/A,,Clear,0,2012-11-11 05:53:00
1:53 AM,63.0,55.0,75,30.28,10.0,North,3.5,-,N/A,,Mostly Cloudy,360,2012-11-11 06:53:00
2:53 AM,63.0,55.0,75,30.27,10.0,NNE,5.8,-,N/A,,Clear,20,2012-11-11 07:53:00
3:53 AM,62.1,55.9,80,30.27,10.0,NE,3.5,-,N/A,,Mostly Cloudy,40,2012-11-11 08:53:00
4:53 AM,62.1,55.9,80,30.27,10.0,NNE,4.6,-,N/A,,Partly Cloudy,20,2012-11-11 09:53:00
5:53 AM,60.1,55.0,83,30.27,10.0,Calm,Calm,-,N/A,,Partly Cloudy,0,2012-11-11 10:53:00
6:53 AM,61.0,55.9,83,30.30,10.0,Calm,Calm,-,N/A,,Scattered Clouds,0,2012-11-11 11:53:00
7:53 AM,64.9,59.0,81,30.30,10.0,NE,3.5,-,0.00,,Mostly Cloudy,50,2012-11-11 12:53:00
8:53 AM,72.0,60.1,66,30.31,10.0,ENE,8.1,-,N/A,,Clear,70,2012-11-11 13:53:00
9:53 AM,75.9,57.9,54,30.33,10.0,East,17.3,-,N/A,,Clear,100,2012-11-11 14:53:00
12:53 PM,80.1,55.9,43,30.27,10.0,ESE,12.7,23.0,N/A,,Scattered Clouds,120,2012-11-11 17:53:00
1:53 PM,78.1,57.0,48,30.26,10.0,East,13.8,-,N/A,,Scattered Clouds,90,2012-11-11 18:53:00
2:53 PM,78.1,57.0,48,30.26,10.0,East,18.4,23.0,N/A,,Partly Cloudy,80,2012-11-11 19:53:00
3:53 PM,77.0,60.1,56,30.26,10.0,East,17.3,-,N/A,,Overcast,80,2012-11-11 20:53:00
4:53 PM,73.9,60.1,62,30.27,10.0,ENE,12.7,-,N/A,,Mostly Cloudy,60,2012-11-11 21:53:00
5:53 PM,72.0,61.0,68,30.28,10.0,East,5.8,-,N/A,,Overcast,90,2012-11-11 22:53:00
6:53 PM,71.1,61.0,70,30.28,10.0,ENE,6.9,-,N/A,,Mostly Cloudy,60,2012-11-11 23:53:00
7:53 PM,70.0,62.1,76,30.29,10.0,ENE,8.1,-,0.00,,Overcast,60,2012-11-12 00:53:00
8:53 PM,69.1,62.1,78,30.29,10.0,NE,3.5,-,N/A,,Scattered Clouds,40,2012-11-12 01:53:00
9:53 PM,66.9,62.1,84,30.29,10.0,ENE,4.6,-,N/A,,Mostly Cloudy,60,2012-11-12 02:53:00
10:53 PM,66.9,62.1,84,30.28,10.0,NE,3.5,-,N/A,,Partly Cloudy,40,2012-11-12 03:53:00
11:53 PM,66.0,62.1,87,30.27,10.0,NE,3.5,-,N/A,,Overcast,50,2012-11-12 04:53:00